Year,Month,Day,Hour,Minute,Value (Times are PST for temperature in C)
2021,06,21,00,00,17.40
2021,06,21,00,01,17.30
2021,06,21,00,02,17.40
2021,06,21,00,03,17.40
2021,06,21,00,04,17.40
2021,06,21,00,05,17.50
2021,06,21,00,06,17.50
2021,06,21,00,07,17.60
2021,06,21,00,08,17.60
2021,06,21,00,09,17.70
2021,06,21,00,10,17.70
2021,06,21,00,11,17.80
2021,06,21,00,12,17.80
2021,06,21,00,13,17.80
2021,06,21,00,14,17.80
2021,06,21,00,15,17.80
2021,06,21,00,16,17.80
2021,06,21,00,17,17.80
2021,06,21,00,18,17.80
2021,06,21,00,19,17.80
2021,06,21,00,20,17.80
2021,06,21,00,21,17.80
2021,06,21,00,22,17.80
2021,06,21,00,23,17.80
2021,06,21,00,24,17.80
2021,06,21,00,25,17.80
2021,06,21,00,26,17.80
2021,06,21,00,27,17.80
2021,06,21,00,28,17.70
2021,06,21,00,29,17.70
2021,06,21,00,30,17.70
2021,06,21,00,31,17.60
2021,06,21,00,32,17.60
2021,06,21,00,33,17.60
2021,06,21,00,34,17.60
2021,06,21,00,35,17.60
2021,06,21,00,36,17.60
2021,06,21,00,37,17.60
2021,06,21,00,38,17.60
2021,06,21,00,39,17.60
2021,06,21,00,40,17.60
2021,06,21,00,41,17.60
2021,06,21,00,42,17.60
2021,06,21,00,43,17.60
2021,06,21,00,44,17.50
2021,06,21,00,45,17.50
2021,06,21,00,46,17.50
2021,06,21,00,47,17.40
2021,06,21,00,48,17.40
2021,06,21,00,49,17.40
2021,06,21,00,50,17.40
2021,06,21,00,51,17.30
2021,06,21,00,52,17.30
2021,06,21,00,53,17.30
2021,06,21,00,54,17.30
2021,06,21,00,55,17.20
2021,06,21,00,56,17.20
2021,06,21,00,57,17.20
2021,06,21,00,58,17.20
2021,06,21,00,59,17.10
2021,06,21,01,00,17.10
2021,06,21,01,01,17.10
2021,06,21,01,02,17.10
2021,06,21,01,03,17.10
2021,06,21,01,04,17.10
2021,06,21,01,05,17.10
2021,06,21,01,06,17.10
2021,06,21,01,07,17.10
2021,06,21,01,08,17.10
2021,06,21,01,09,17.10
2021,06,21,01,10,17.10
2021,06,21,01,11,17.00
2021,06,21,01,12,17.00
2021,06,21,01,13,17.00
2021,06,21,01,14,16.90
2021,06,21,01,15,16.90
2021,06,21,01,16,16.90
2021,06,21,01,17,16.90
2021,06,21,01,18,16.90
2021,06,21,01,19,16.90
2021,06,21,01,20,16.90
2021,06,21,01,21,16.90
2021,06,21,01,22,16.90
2021,06,21,01,23,17.00
2021,06,21,01,24,17.00
2021,06,21,01,25,17.00
2021,06,21,01,26,17.00
2021,06,21,01,27,17.00
2021,06,21,01,28,16.90
2021,06,21,01,29,16.90
2021,06,21,01,30,16.90
2021,06,21,01,31,16.80
2021,06,21,01,32,16.80
2021,06,21,01,33,16.80
2021,06,21,01,34,16.80
2021,06,21,01,35,16.80
2021,06,21,01,36,16.80
2021,06,21,01,37,16.80
2021,06,21,01,38,16.80
2021,06,21,01,39,16.80
2021,06,21,01,40,16.80
2021,06,21,01,41,16.70
2021,06,21,01,42,16.70
2021,06,21,01,43,16.70
2021,06,21,01,44,16.70
2021,06,21,01,45,16.70
2021,06,21,01,46,16.60
2021,06,21,01,47,16.70
2021,06,21,01,48,16.70
2021,06,21,01,49,16.70
2021,06,21,01,50,16.70
2021,06,21,01,51,16.70
2021,06,21,01,52,16.60
2021,06,21,01,53,16.60
2021,06,21,01,54,16.50
2021,06,21,01,55,16.50
2021,06,21,01,56,16.50
2021,06,21,01,57,16.40
2021,06,21,01,58,16.40
2021,06,21,01,59,16.40
2021,06,21,02,00,16.30
2021,06,21,02,01,16.30
2021,06,21,02,02,16.30
2021,06,21,02,03,16.30
2021,06,21,02,04,16.30
2021,06,21,02,05,16.20
2021,06,21,02,06,16.20
2021,06,21,02,07,16.20
2021,06,21,02,08,16.20
2021,06,21,02,09,16.20
2021,06,21,02,10,16.20
2021,06,21,02,11,16.20
2021,06,21,02,12,16.10
2021,06,21,02,13,16.20
2021,06,21,02,14,16.10
2021,06,21,02,15,16.10
2021,06,21,02,16,16.10
2021,06,21,02,17,16.10
2021,06,21,02,18,16.10
2021,06,21,02,19,16.10
2021,06,21,02,20,16.10
2021,06,21,02,21,16.10
2021,06,21,02,22,16.10
2021,06,21,02,23,16.10
2021,06,21,02,24,16.20
2021,06,21,02,25,16.20
2021,06,21,02,26,16.20
2021,06,21,02,27,16.20
2021,06,21,02,28,16.30
2021,06,21,02,29,16.30
2021,06,21,02,30,16.30
2021,06,21,02,31,16.40
2021,06,21,02,32,16.40
2021,06,21,02,33,16.40
2021,06,21,02,34,16.40
2021,06,21,02,35,16.30
2021,06,21,02,36,16.30
2021,06,21,02,37,16.30
2021,06,21,02,38,16.40
2021,06,21,02,39,16.40
2021,06,21,02,40,16.50
2021,06,21,02,41,16.50
2021,06,21,02,42,16.50
2021,06,21,02,43,16.60
2021,06,21,02,44,16.60
2021,06,21,02,45,16.60
2021,06,21,02,46,16.60
2021,06,21,02,47,16.60
2021,06,21,02,48,16.60
2021,06,21,02,49,16.60
2021,06,21,02,50,16.60
2021,06,21,02,51,16.60
2021,06,21,02,52,16.60
2021,06,21,02,53,16.60
2021,06,21,02,54,16.60
2021,06,21,02,55,16.60
2021,06,21,02,56,16.60
2021,06,21,02,57,16.70
2021,06,21,02,58,16.70
2021,06,21,02,59,16.70
2021,06,21,03,00,16.70
2021,06,21,03,01,16.70
2021,06,21,03,02,16.60
2021,06,21,03,03,16.60
2021,06,21,03,04,16.60
2021,06,21,03,05,16.60
2021,06,21,03,06,16.50
2021,06,21,03,07,16.50
2021,06,21,03,08,16.50
2021,06,21,03,09,16.50
2021,06,21,03,10,16.60
2021,06,21,03,11,16.60
2021,06,21,03,12,16.60
2021,06,21,03,13,16.60
2021,06,21,03,14,16.60
2021,06,21,03,15,16.60
2021,06,21,03,16,16.50
2021,06,21,03,17,16.50
2021,06,21,03,18,16.50
2021,06,21,03,19,16.40
2021,06,21,03,20,16.40
2021,06,21,03,21,16.40
2021,06,21,03,22,16.40
2021,06,21,03,23,16.40
2021,06,21,03,24,16.40
2021,06,21,03,25,16.40
2021,06,21,03,26,16.40
2021,06,21,03,27,16.40
2021,06,21,03,28,16.40
2021,06,21,03,29,16.30
2021,06,21,03,30,16.30
2021,06,21,03,31,16.30
2021,06,21,03,32,16.30
2021,06,21,03,33,16.30
2021,06,21,03,34,16.30
2021,06,21,03,35,16.30
2021,06,21,03,36,16.20
2021,06,21,03,37,16.20
2021,06,21,03,38,16.20
2021,06,21,03,39,16.20
2021,06,21,03,40,16.20
2021,06,21,03,41,16.20
2021,06,21,03,42,16.20
2021,06,21,03,43,16.20
2021,06,21,03,44,16.20
2021,06,21,03,45,16.20
2021,06,21,03,46,16.20
2021,06,21,03,47,16.10
2021,06,21,03,48,16.10
2021,06,21,03,49,16.10
2021,06,21,03,50,16.10
2021,06,21,03,51,16.10
2021,06,21,03,52,16.10
2021,06,21,03,53,16.00
2021,06,21,03,54,16.00
2021,06,21,03,55,16.00
2021,06,21,03,56,16.00
2021,06,21,03,57,15.90
2021,06,21,03,58,15.90
2021,06,21,03,59,15.90
2021,06,21,04,00,15.90
2021,06,21,04,01,15.80
2021,06,21,04,02,15.80
2021,06,21,04,03,15.80
2021,06,21,04,04,15.70
2021,06,21,04,05,15.70
2021,06,21,04,06,15.70
2021,06,21,04,07,15.70
2021,06,21,04,08,15.70
2021,06,21,04,09,15.70
2021,06,21,04,10,15.70
2021,06,21,04,11,15.70
2021,06,21,04,12,15.70
2021,06,21,04,13,15.70
2021,06,21,04,14,15.70
2021,06,21,04,15,15.70
2021,06,21,04,16,15.70
2021,06,21,04,17,15.70
2021,06,21,04,18,15.60
2021,06,21,04,19,15.60
2021,06,21,04,20,15.60
2021,06,21,04,21,15.50
2021,06,21,04,22,15.50
2021,06,21,04,23,15.40
2021,06,21,04,24,15.40
2021,06,21,04,25,15.40
2021,06,21,04,26,15.40
2021,06,21,04,27,15.40
2021,06,21,04,28,15.30
2021,06,21,04,29,15.30
2021,06,21,04,30,15.30
2021,06,21,04,31,15.30
2021,06,21,04,32,15.30
2021,06,21,04,33,15.30
2021,06,21,04,34,15.30
2021,06,21,04,35,15.30
2021,06,21,04,36,15.20
2021,06,21,04,37,15.20
2021,06,21,04,38,15.20
2021,06,21,04,39,15.20
2021,06,21,04,40,15.20
2021,06,21,04,41,15.20
2021,06,21,04,42,15.20
2021,06,21,04,43,15.20
2021,06,21,04,44,15.20
2021,06,21,04,45,15.20
2021,06,21,04,46,15.20
2021,06,21,04,47,15.20
2021,06,21,04,48,15.20
2021,06,21,04,49,15.20
2021,06,21,04,50,15.20
2021,06,21,04,51,15.20
2021,06,21,04,52,15.20
2021,06,21,04,53,15.20
2021,06,21,04,54,15.20
2021,06,21,04,55,15.20
2021,06,21,04,56,15.10
2021,06,21,04,57,15.10
2021,06,21,04,58,15.10
2021,06,21,04,59,15.10
2021,06,21,05,00,15.00
2021,06,21,05,01,15.00
2021,06,21,05,02,15.00
2021,06,21,05,03,15.00
2021,06,21,05,04,15.00
2021,06,21,05,05,15.00
2021,06,21,05,06,14.90
2021,06,21,05,07,15.00
2021,06,21,05,08,14.90
2021,06,21,05,09,14.90
2021,06,21,05,10,14.90
2021,06,21,05,11,14.90
2021,06,21,05,12,14.90
2021,06,21,05,13,14.90
2021,06,21,05,14,14.90
2021,06,21,05,15,14.90
2021,06,21,05,16,14.80
2021,06,21,05,17,14.80
2021,06,21,05,18,14.80
2021,06,21,05,19,14.80
2021,06,21,05,20,14.80
2021,06,21,05,21,14.80
2021,06,21,05,22,14.70
2021,06,21,05,23,14.70
2021,06,21,05,24,14.70
2021,06,21,05,25,14.70
2021,06,21,05,26,14.60
2021,06,21,05,27,14.60
2021,06,21,05,28,14.60
2021,06,21,05,29,14.60
2021,06,21,05,30,14.50
2021,06,21,05,31,14.50
2021,06,21,05,32,14.50
2021,06,21,05,33,14.50
2021,06,21,05,34,14.40
2021,06,21,05,35,14.40
2021,06,21,05,36,14.40
2021,06,21,05,37,14.40
2021,06,21,05,38,14.50
2021,06,21,05,39,14.50
2021,06,21,05,40,14.50
2021,06,21,05,41,14.50
2021,06,21,05,42,14.50
2021,06,21,05,43,14.50
2021,06,21,05,44,14.50
2021,06,21,05,45,14.50
2021,06,21,05,46,14.60
2021,06,21,05,47,14.60
2021,06,21,05,48,14.60
2021,06,21,05,49,14.60
2021,06,21,05,50,14.60
2021,06,21,05,51,14.70
2021,06,21,05,52,14.70
2021,06,21,05,53,14.70
2021,06,21,05,54,14.60
2021,06,21,05,55,14.60
2021,06,21,05,56,14.60
2021,06,21,05,57,14.60
2021,06,21,05,58,14.70
2021,06,21,05,59,14.70
2021,06,21,06,00,14.70
2021,06,21,06,01,14.80
2021,06,21,06,02,14.80
2021,06,21,06,03,14.80
2021,06,21,06,04,14.80
2021,06,21,06,05,14.90
2021,06,21,06,06,14.90
2021,06,21,06,07,14.90
2021,06,21,06,08,15.00
2021,06,21,06,09,15.00
2021,06,21,06,10,15.00
2021,06,21,06,11,15.10
2021,06,21,06,12,15.10
2021,06,21,06,13,15.20
2021,06,21,06,14,15.20
2021,06,21,06,15,15.20
2021,06,21,06,16,15.30
2021,06,21,06,17,15.30
2021,06,21,06,18,15.30
2021,06,21,06,19,15.30
2021,06,21,06,20,15.40
2021,06,21,06,21,15.40
2021,06,21,06,22,15.40
2021,06,21,06,23,15.40
2021,06,21,06,24,15.40
2021,06,21,06,25,15.40
2021,06,21,06,26,15.40
2021,06,21,06,27,15.50
2021,06,21,06,28,15.50
2021,06,21,06,29,15.50
2021,06,21,06,30,15.60
2021,06,21,06,31,15.60
2021,06,21,06,32,15.70
2021,06,21,06,33,15.70
2021,06,21,06,34,15.80
2021,06,21,06,35,15.80
2021,06,21,06,36,15.90
2021,06,21,06,37,15.90
2021,06,21,06,38,15.90
2021,06,21,06,39,16.00
2021,06,21,06,40,16.00
2021,06,21,06,41,16.00
2021,06,21,06,42,16.00
2021,06,21,06,43,16.00
2021,06,21,06,44,16.00
2021,06,21,06,45,16.10
2021,06,21,06,46,16.10
2021,06,21,06,47,16.10
2021,06,21,06,48,16.20
2021,06,21,06,49,16.20
2021,06,21,06,50,16.30
2021,06,21,06,51,16.30
2021,06,21,06,52,16.40
2021,06,21,06,53,16.50
2021,06,21,06,54,16.50
2021,06,21,06,55,16.60
2021,06,21,06,56,16.70
2021,06,21,06,57,16.80
2021,06,21,06,58,16.80
2021,06,21,06,59,16.90
2021,06,21,07,00,17.00
2021,06,21,07,01,17.10
2021,06,21,07,02,17.20
2021,06,21,07,03,17.20
2021,06,21,07,04,17.30
2021,06,21,07,05,17.30
2021,06,21,07,06,17.40
2021,06,21,07,07,17.50
2021,06,21,07,08,17.60
2021,06,21,07,09,17.60
2021,06,21,07,10,17.70
2021,06,21,07,11,17.70
2021,06,21,07,12,17.80
2021,06,21,07,13,17.90
2021,06,21,07,14,18.00
2021,06,21,07,15,18.10
2021,06,21,07,16,18.10
2021,06,21,07,17,18.20
2021,06,21,07,18,18.20
2021,06,21,07,19,18.20
2021,06,21,07,20,18.30
2021,06,21,07,21,18.30
2021,06,21,07,22,18.40
2021,06,21,07,23,18.40
2021,06,21,07,24,18.40
2021,06,21,07,25,18.40
2021,06,21,07,26,18.40
2021,06,21,07,27,18.40
2021,06,21,07,28,18.50
2021,06,21,07,29,18.50
2021,06,21,07,30,18.50
2021,06,21,07,31,18.50
2021,06,21,07,32,18.50
2021,06,21,07,33,18.50
2021,06,21,07,34,18.50
2021,06,21,07,35,18.50
2021,06,21,07,36,18.50
2021,06,21,07,37,18.60
2021,06,21,07,38,18.60
2021,06,21,07,39,18.70
2021,06,21,07,40,18.80
2021,06,21,07,41,18.90
2021,06,21,07,42,18.90
2021,06,21,07,43,18.90
2021,06,21,07,44,18.80
2021,06,21,07,45,18.80
2021,06,21,07,46,18.90
2021,06,21,07,47,18.90
2021,06,21,07,48,18.90
2021,06,21,07,49,18.90
2021,06,21,07,50,18.90
2021,06,21,07,51,18.90
2021,06,21,07,52,18.90
2021,06,21,07,53,18.90
2021,06,21,07,54,18.90
2021,06,21,07,55,18.90
2021,06,21,07,56,18.90
2021,06,21,07,57,19.00
2021,06,21,07,58,19.00
2021,06,21,07,59,19.10
2021,06,21,08,00,19.20
2021,06,21,08,01,19.30
2021,06,21,08,02,19.30
2021,06,21,08,03,19.40
2021,06,21,08,04,19.40
2021,06,21,08,05,19.50
2021,06,21,08,06,19.50
2021,06,21,08,07,19.50
2021,06,21,08,08,19.50
2021,06,21,08,09,19.50
2021,06,21,08,10,19.40
2021,06,21,08,11,19.40
2021,06,21,08,12,19.40
2021,06,21,08,13,19.50
2021,06,21,08,14,19.50
2021,06,21,08,15,19.60
2021,06,21,08,16,19.70
2021,06,21,08,17,19.80
2021,06,21,08,18,19.80
2021,06,21,08,19,19.80
2021,06,21,08,20,19.90
2021,06,21,08,21,19.90
2021,06,21,08,22,19.90
2021,06,21,08,23,19.90
2021,06,21,08,24,19.80
2021,06,21,08,25,19.80
2021,06,21,08,26,19.80
2021,06,21,08,27,19.80
2021,06,21,08,28,19.80
2021,06,21,08,29,19.90
2021,06,21,08,30,20.00
2021,06,21,08,31,20.00
2021,06,21,08,32,19.90
2021,06,21,08,33,19.90
2021,06,21,08,34,19.90
2021,06,21,08,35,19.90
2021,06,21,08,36,20.00
2021,06,21,08,37,20.00
2021,06,21,08,38,20.00
2021,06,21,08,39,20.00
2021,06,21,08,40,20.10
2021,06,21,08,41,20.10
2021,06,21,08,42,20.10
2021,06,21,08,43,20.10
2021,06,21,08,44,20.20
2021,06,21,08,45,20.20
2021,06,21,08,46,20.30
2021,06,21,08,47,20.30
2021,06,21,08,48,20.20
2021,06,21,08,49,20.20
2021,06,21,08,50,20.20
2021,06,21,08,51,20.20
2021,06,21,08,52,20.20
2021,06,21,08,53,20.20
2021,06,21,08,54,20.20
2021,06,21,08,55,20.20
2021,06,21,08,56,20.20
2021,06,21,08,57,20.20
2021,06,21,08,58,20.20
2021,06,21,08,59,20.20
2021,06,21,09,00,20.20
2021,06,21,09,01,20.20
2021,06,21,09,02,20.20
2021,06,21,09,03,20.20
2021,06,21,09,04,20.20
2021,06,21,09,05,20.10
2021,06,21,09,06,20.20
2021,06,21,09,07,20.10
2021,06,21,09,08,20.10
2021,06,21,09,09,20.10
2021,06,21,09,10,20.10
2021,06,21,09,11,20.10
2021,06,21,09,12,20.10
2021,06,21,09,13,20.10
2021,06,21,09,14,20.20
2021,06,21,09,15,20.20
2021,06,21,09,16,20.30
2021,06,21,09,17,20.40
2021,06,21,09,18,20.40
2021,06,21,09,19,20.40
2021,06,21,09,20,20.50
2021,06,21,09,21,20.60
2021,06,21,09,22,20.60
2021,06,21,09,23,20.70
2021,06,21,09,24,20.70
2021,06,21,09,25,20.80
2021,06,21,09,26,20.80
2021,06,21,09,27,20.80
2021,06,21,09,28,20.80
2021,06,21,09,29,20.80
2021,06,21,09,30,20.90
2021,06,21,09,31,20.90
2021,06,21,09,32,20.90
2021,06,21,09,33,20.90
2021,06,21,09,34,20.90
2021,06,21,09,35,21.00
2021,06,21,09,36,21.10
2021,06,21,09,37,21.10
2021,06,21,09,38,21.20
2021,06,21,09,39,21.30
2021,06,21,09,40,21.30
2021,06,21,09,41,21.30
2021,06,21,09,42,21.40
2021,06,21,09,43,21.40
2021,06,21,09,44,21.50
2021,06,21,09,45,21.60
2021,06,21,09,46,21.60
2021,06,21,09,47,21.60
2021,06,21,09,48,21.60
2021,06,21,09,49,21.70
2021,06,21,09,50,21.70
2021,06,21,09,51,21.80
2021,06,21,09,52,21.90
2021,06,21,09,53,21.90
2021,06,21,09,54,21.90
2021,06,21,09,55,21.90
2021,06,21,09,56,21.80
2021,06,21,09,57,21.80
2021,06,21,09,58,21.70
2021,06,21,09,59,21.70
2021,06,21,10,00,21.70
2021,06,21,10,01,21.70
2021,06,21,10,02,21.70
2021,06,21,10,03,21.70
2021,06,21,10,04,21.70
2021,06,21,10,05,21.60
2021,06,21,10,06,21.60
2021,06,21,10,07,21.60
2021,06,21,10,08,21.50
2021,06,21,10,09,21.60
2021,06,21,10,10,21.70
2021,06,21,10,11,21.70
2021,06,21,10,12,21.70
2021,06,21,10,13,21.80
2021,06,21,10,14,21.80
2021,06,21,10,15,21.90
2021,06,21,10,16,21.90
2021,06,21,10,17,22.00
2021,06,21,10,18,22.10
2021,06,21,10,19,22.20
2021,06,21,10,20,22.30
2021,06,21,10,21,22.40
2021,06,21,10,22,22.40
2021,06,21,10,23,22.50
2021,06,21,10,24,22.60
2021,06,21,10,25,22.70
2021,06,21,10,26,22.80
2021,06,21,10,27,22.80
2021,06,21,10,28,22.80
2021,06,21,10,29,22.80
2021,06,21,10,30,22.80
2021,06,21,10,31,22.80
2021,06,21,10,32,22.90
2021,06,21,10,33,23.00
2021,06,21,10,34,23.00
2021,06,21,10,35,23.10
2021,06,21,10,36,23.20
2021,06,21,10,37,23.20
2021,06,21,10,38,23.30
2021,06,21,10,39,23.30
2021,06,21,10,40,23.20
2021,06,21,10,41,23.10
2021,06,21,10,42,22.90
2021,06,21,10,43,22.80
2021,06,21,10,44,22.80
2021,06,21,10,45,22.80
2021,06,21,10,46,22.80
2021,06,21,10,47,22.80
2021,06,21,10,48,22.80
2021,06,21,10,49,22.80
2021,06,21,10,50,22.90
2021,06,21,10,51,22.90
2021,06,21,10,52,22.90
2021,06,21,10,53,22.90
2021,06,21,10,54,22.90
2021,06,21,10,55,23.00
2021,06,21,10,56,23.00
2021,06,21,10,57,23.00
2021,06,21,10,58,23.10
2021,06,21,10,59,23.20
2021,06,21,11,00,23.40
2021,06,21,11,01,23.50
2021,06,21,11,02,23.50
2021,06,21,11,03,23.60
2021,06,21,11,04,23.60
2021,06,21,11,05,23.60
2021,06,21,11,06,23.70
2021,06,21,11,07,23.70
2021,06,21,11,08,23.80
2021,06,21,11,09,23.80
2021,06,21,11,10,23.80
2021,06,21,11,11,23.70
2021,06,21,11,12,23.60
2021,06,21,11,13,23.50
2021,06,21,11,14,23.40
2021,06,21,11,15,23.30
2021,06,21,11,16,23.20
2021,06,21,11,17,23.20
2021,06,21,11,18,23.20
2021,06,21,11,19,23.20
2021,06,21,11,20,23.20
2021,06,21,11,21,23.30
2021,06,21,11,22,23.30
2021,06,21,11,23,23.30
2021,06,21,11,24,23.20
2021,06,21,11,25,23.20
2021,06,21,11,26,23.20
2021,06,21,11,27,23.20
2021,06,21,11,28,23.30
2021,06,21,11,29,23.40
2021,06,21,11,30,23.40
2021,06,21,11,31,23.50
2021,06,21,11,32,23.50
2021,06,21,11,33,23.50
2021,06,21,11,34,23.40
2021,06,21,11,35,23.40
2021,06,21,11,36,23.50
2021,06,21,11,37,23.50
2021,06,21,11,38,23.50
2021,06,21,11,39,23.40
2021,06,21,11,40,23.30
2021,06,21,11,41,23.20
2021,06,21,11,42,23.20
2021,06,21,11,43,23.20
2021,06,21,11,44,23.40
2021,06,21,11,45,23.40
2021,06,21,11,46,23.50
2021,06,21,11,47,23.60
2021,06,21,11,48,23.70
2021,06,21,11,49,23.70
2021,06,21,11,50,23.60
2021,06,21,11,51,23.70
2021,06,21,11,52,23.70
2021,06,21,11,53,23.80
2021,06,21,11,54,23.80
2021,06,21,11,55,23.80
2021,06,21,11,56,23.90
2021,06,21,11,57,23.90
2021,06,21,11,58,24.00
2021,06,21,11,59,24.00
2021,06,21,12,00,24.10
2021,06,21,12,01,24.20
2021,06,21,12,02,24.30
2021,06,21,12,03,24.50
2021,06,21,12,04,24.60
2021,06,21,12,05,24.70
2021,06,21,12,06,24.80
2021,06,21,12,07,24.80
2021,06,21,12,08,24.80
2021,06,21,12,09,24.70
2021,06,21,12,10,24.50
2021,06,21,12,11,24.30
2021,06,21,12,12,24.30
2021,06,21,12,13,24.20
2021,06,21,12,14,24.10
2021,06,21,12,15,24.10
2021,06,21,12,16,24.00
2021,06,21,12,17,23.90
2021,06,21,12,18,23.80
2021,06,21,12,19,23.80
2021,06,21,12,20,23.90
2021,06,21,12,21,23.90
2021,06,21,12,22,24.00
2021,06,21,12,23,24.00
2021,06,21,12,24,24.10
2021,06,21,12,25,24.10
2021,06,21,12,26,24.10
2021,06,21,12,27,24.10
2021,06,21,12,28,24.10
2021,06,21,12,29,24.20
2021,06,21,12,30,24.20
2021,06,21,12,31,24.30
2021,06,21,12,32,24.40
2021,06,21,12,33,24.50
2021,06,21,12,34,24.70
2021,06,21,12,35,24.80
2021,06,21,12,36,24.80
2021,06,21,12,37,24.70
2021,06,21,12,38,24.80
2021,06,21,12,39,24.80
2021,06,21,12,40,24.80
2021,06,21,12,41,24.60
2021,06,21,12,42,24.60
2021,06,21,12,43,24.50
2021,06,21,12,44,24.40
2021,06,21,12,45,24.40
2021,06,21,12,46,24.40
2021,06,21,12,47,24.30
2021,06,21,12,48,24.30
2021,06,21,12,49,24.30
2021,06,21,12,50,24.40
2021,06,21,12,51,24.40
2021,06,21,12,52,24.50
2021,06,21,12,53,24.50
2021,06,21,12,54,24.50
2021,06,21,12,55,24.60
2021,06,21,12,56,24.60
2021,06,21,12,57,24.60
2021,06,21,12,58,24.60
2021,06,21,12,59,24.50
2021,06,21,13,00,24.50
2021,06,21,13,01,24.40
2021,06,21,13,02,24.30
2021,06,21,13,03,24.30
2021,06,21,13,04,24.40
2021,06,21,13,05,24.40
2021,06,21,13,06,24.40
2021,06,21,13,07,24.50
2021,06,21,13,08,24.50
2021,06,21,13,09,24.60
2021,06,21,13,10,24.60
2021,06,21,13,11,24.60
2021,06,21,13,12,24.50
2021,06,21,13,13,24.50
2021,06,21,13,14,24.50
2021,06,21,13,15,24.50
2021,06,21,13,16,24.50
2021,06,21,13,17,24.40
2021,06,21,13,18,24.30
2021,06,21,13,19,24.20
2021,06,21,13,20,24.10
2021,06,21,13,21,24.10
2021,06,21,13,22,24.00
2021,06,21,13,23,23.90
2021,06,21,13,24,23.90
2021,06,21,13,25,23.90
2021,06,21,13,26,24.00
2021,06,21,13,27,23.90
2021,06,21,13,28,23.80
2021,06,21,13,29,23.70
2021,06,21,13,30,23.60
2021,06,21,13,31,23.60
2021,06,21,13,32,23.60
2021,06,21,13,33,23.70
2021,06,21,13,34,23.70
2021,06,21,13,35,23.70
2021,06,21,13,36,23.60
2021,06,21,13,37,23.80
2021,06,21,13,38,23.90
2021,06,21,13,39,24.10
2021,06,21,13,40,24.10
2021,06,21,13,41,24.00
2021,06,21,13,42,23.90
2021,06,21,13,43,23.90
2021,06,21,13,44,23.90
2021,06,21,13,45,23.90
2021,06,21,13,46,24.00
2021,06,21,13,47,24.10
2021,06,21,13,48,24.30
2021,06,21,13,49,24.40
2021,06,21,13,50,24.50
2021,06,21,13,51,24.70
2021,06,21,13,52,24.80
2021,06,21,13,53,25.00
2021,06,21,13,54,25.00
2021,06,21,13,55,24.90
2021,06,21,13,56,24.90
2021,06,21,13,57,24.90
2021,06,21,13,58,24.90
2021,06,21,13,59,24.90
2021,06,21,14,00,24.80
2021,06,21,14,01,24.80
2021,06,21,14,02,24.80
2021,06,21,14,03,24.80
2021,06,21,14,04,24.80
2021,06,21,14,05,24.80
2021,06,21,14,06,24.70
2021,06,21,14,07,24.70
2021,06,21,14,08,24.70
2021,06,21,14,09,24.70
2021,06,21,14,10,24.70
2021,06,21,14,11,24.90
2021,06,21,14,12,24.90
2021,06,21,14,13,24.90
2021,06,21,14,14,24.90
2021,06,21,14,15,24.90
2021,06,21,14,16,24.90
2021,06,21,14,17,24.90
2021,06,21,14,18,24.90
2021,06,21,14,19,25.00
2021,06,21,14,20,25.00
2021,06,21,14,21,25.20
2021,06,21,14,22,25.20
2021,06,21,14,23,25.20
2021,06,21,14,24,25.20
2021,06,21,14,25,25.20
2021,06,21,14,26,25.20
2021,06,21,14,27,25.20
2021,06,21,14,28,25.10
2021,06,21,14,29,25.10
2021,06,21,14,30,25.10
2021,06,21,14,31,25.10
2021,06,21,14,32,25.20
2021,06,21,14,33,25.20
2021,06,21,14,34,25.30
2021,06,21,14,35,25.40
2021,06,21,14,36,25.40
2021,06,21,14,37,25.40
2021,06,21,14,38,25.30
2021,06,21,14,39,25.30
2021,06,21,14,40,25.30
2021,06,21,14,41,25.30
2021,06,21,14,42,25.40
2021,06,21,14,43,25.50
2021,06,21,14,44,25.60
2021,06,21,14,45,25.60
2021,06,21,14,46,25.60
2021,06,21,14,47,25.70
2021,06,21,14,48,25.70
2021,06,21,14,49,25.70
2021,06,21,14,50,25.80
2021,06,21,14,51,25.90
2021,06,21,14,52,25.90
2021,06,21,14,53,25.90
2021,06,21,14,54,25.90
2021,06,21,14,55,25.90
2021,06,21,14,56,26.00
2021,06,21,14,57,26.10
2021,06,21,14,58,26.10
2021,06,21,14,59,26.10
2021,06,21,15,00,26.00
2021,06,21,15,01,26.00
2021,06,21,15,02,26.00
2021,06,21,15,03,25.90
2021,06,21,15,04,25.90
2021,06,21,15,05,25.80
2021,06,21,15,06,25.80
2021,06,21,15,07,25.80
2021,06,21,15,08,25.80
2021,06,21,15,09,25.80
2021,06,21,15,10,25.90
2021,06,21,15,11,26.00
2021,06,21,15,12,26.00
2021,06,21,15,13,26.00
2021,06,21,15,14,26.00
2021,06,21,15,15,26.10
2021,06,21,15,16,26.20
2021,06,21,15,17,26.40
2021,06,21,15,18,26.50
2021,06,21,15,19,26.70
2021,06,21,15,20,26.80
2021,06,21,15,21,26.70
2021,06,21,15,22,26.70
2021,06,21,15,23,26.70
2021,06,21,15,24,26.70
2021,06,21,15,25,26.70
2021,06,21,15,26,26.60
2021,06,21,15,27,26.70
2021,06,21,15,28,26.80
2021,06,21,15,29,26.90
2021,06,21,15,30,26.80
2021,06,21,15,31,26.80
2021,06,21,15,32,26.80
2021,06,21,15,33,26.80
2021,06,21,15,34,26.70
2021,06,21,15,35,26.80
2021,06,21,15,36,26.80
2021,06,21,15,37,26.80
2021,06,21,15,38,26.80
2021,06,21,15,39,26.70
2021,06,21,15,40,26.70
2021,06,21,15,41,26.80
2021,06,21,15,42,26.80
2021,06,21,15,43,26.80
2021,06,21,15,44,26.90
2021,06,21,15,45,26.90
2021,06,21,15,46,26.90
2021,06,21,15,47,26.90
2021,06,21,15,48,26.90
2021,06,21,15,49,27.00
2021,06,21,15,50,27.10
2021,06,21,15,51,27.10
2021,06,21,15,52,27.10
2021,06,21,15,53,27.20
2021,06,21,15,54,27.20
2021,06,21,15,55,27.30
2021,06,21,15,56,27.50
2021,06,21,15,57,27.50
2021,06,21,15,58,27.50
2021,06,21,15,59,27.60
2021,06,21,16,00,27.60
2021,06,21,16,01,27.60
2021,06,21,16,02,27.60
2021,06,21,16,03,27.50
2021,06,21,16,04,27.50
2021,06,21,16,05,27.60
2021,06,21,16,06,27.60
2021,06,21,16,07,27.60
2021,06,21,16,08,27.60
2021,06,21,16,09,27.50
2021,06,21,16,10,27.40
2021,06,21,16,11,27.40
2021,06,21,16,12,27.40
2021,06,21,16,13,27.40
2021,06,21,16,14,27.40
2021,06,21,16,15,27.40
2021,06,21,16,16,27.40
2021,06,21,16,17,27.40
2021,06,21,16,18,27.40
2021,06,21,16,19,27.40
2021,06,21,16,20,27.50
2021,06,21,16,21,27.40
2021,06,21,16,22,27.40
2021,06,21,16,23,27.40
2021,06,21,16,24,27.50
2021,06,21,16,25,27.40
2021,06,21,16,26,27.40
2021,06,21,16,27,27.40
2021,06,21,16,28,27.40
2021,06,21,16,29,27.40
2021,06,21,16,30,27.40
2021,06,21,16,31,27.40
2021,06,21,16,32,27.40
2021,06,21,16,33,27.40
2021,06,21,16,34,27.50
2021,06,21,16,35,27.60
2021,06,21,16,36,27.70
2021,06,21,16,37,27.70
2021,06,21,16,38,27.70
2021,06,21,16,39,27.80
2021,06,21,16,40,27.90
2021,06,21,16,41,27.90
2021,06,21,16,42,27.90
2021,06,21,16,43,27.90
2021,06,21,16,44,27.90
2021,06,21,16,45,27.70
2021,06,21,16,46,27.70
2021,06,21,16,47,27.70
2021,06,21,16,48,27.70
2021,06,21,16,49,27.60
2021,06,21,16,50,27.60
2021,06,21,16,51,27.60
2021,06,21,16,52,27.50
2021,06,21,16,53,27.50
2021,06,21,16,54,27.50
2021,06,21,16,55,27.60
2021,06,21,16,56,27.60
2021,06,21,16,57,27.60
2021,06,21,16,58,27.50
2021,06,21,16,59,27.40
2021,06,21,17,00,27.40
2021,06,21,17,01,27.30
2021,06,21,17,02,27.30
2021,06,21,17,03,27.30
2021,06,21,17,04,27.30
2021,06,21,17,05,27.30
2021,06,21,17,06,27.40
2021,06,21,17,07,27.50
2021,06,21,17,08,27.70
2021,06,21,17,09,27.80
2021,06,21,17,10,27.90
2021,06,21,17,11,28.10
2021,06,21,17,12,28.20
2021,06,21,17,13,28.30
2021,06,21,17,14,28.30
2021,06,21,17,15,28.50
2021,06,21,17,16,28.60
2021,06,21,17,17,28.60
2021,06,21,17,18,28.60
2021,06,21,17,19,28.80